UNISAT-6 (40012 NORAD) Tracking and Keplerian Element Data

This shows tracking and keplerian element data for the satellite.

Feedback or suggestion? Click here.




ElementValue
Catalog40012
NameUNISAT-6
Epoch Orbit45298
Epoch Day324.46918497
Epoch Year2022
RAAN144.1703
Inclination97.6614
Eccentricity0.0057331
Argument of Perigee14.8898
Mean Anonmoly345.3984
Mean Motion14.75366222
Decay Rate1.264E-05
L11 40012U 14033C 22324.46918497 .00001264 00000+0 18869-3 0 9996
L22 40012 97.6614 144.1703 0057331 14.8898 345.3984 14.75366222452981



Live tracking and technical data element details for UNISAT-6 (NORAD 40012). UNISAT-6 can be tracked NOW for your location showing map with azimuth and elevation plus other details from your city location.







IsCatalogInMostPopularTable: catalog: 40012, numindb: 609
Update: records affected: 1



GetName: 40012 UNISAT-6

Hit Count: updated at: Mon, 28 Nov 2022 06:08:18 GMT